Location: Frizzleburg
(41.0764°N, 80.4548°W)
Time: 10:40:41
(UTC+00:00)

Cosmos 1892 - Pass Details

Date: 17 November 2019
Orbit: 504 x 525 km, 82.5° (Epoch: 11 December)

Event Time Altitude Azimuth Distance (km) Brightness Sun altitude
Rises 10:14:31 0° 186° (S) 2,608 6.3 -22.0°
Reaches altitude 10° 10:16:38 10° 186° (S) 1,724 5.3 -21.6°
Maximum altitude 10:20:25 89° 108° (ESE) 514 2.5 -20.9°
Drops below altitude 10° 10:24:12 10° 8° (N) 1,729 5.3 -20.2°
Sets 10:26:20 0° 8° (N) 2,617 6.3 -19.8°
